sat.trackr.live / text

‹ back to catalog

STARLINK-6360

NORAD 57235 · 2023-094T

PAYLOAD ACTIVE UNKNOWN

§ Identity

Operator
Country
US
Launch date
2023-07-07
Launch site
AFWTR
Launch vehicle
Mass (kg)
RCS (m²)

Purposes: comms

External: N2YO · Heavens-Above · Gunter

§ Orbital elements

Epoch: 2026-05-24T20:24:16.834176Z

Period
94.27 min
Inclination
43.0028°
Eccentricity
0.0001519
Mean motion
15.27573199 rev/d
Perigee alt
482.0 km
Apogee alt
484.1 km
Semi-major
6,861.2 km
B*
7.1829e-5
RAAN
320.5708°
Arg perigee
278.6491°
Mean anomaly
81.4189°
Rev number
15,876

§ Raw data

STARLINK-63601 57235U 23094T   26144.85019484  .00001714  00000+0  71829-4 0  99992 57235  43.0028 320.5708 0001519 278.6491  81.4189 15.27573199158766

JSON: /api/v1/satellites/57235 · /tle

For live sub-satellite position, see the globe view (requires WebGL).

§ Visibility from observer

Set your observer location to see the next 7 days of passes ≥ 10°. The values pass through the URL so the page stays shareable.

No JS? Fill the form by hand. The geolocation button needs JavaScript.